Regional Weather Roundup
Issued by NWS Newport/Morehead, NC

Current Version | Previous Version | Text Only | Print | Product List | Glossary On
Versions: 1 2 3 4 5 6 7 8 9 10 11 12 13 14 15 16 17 18 19 20 21 22 23 24 25 26 27 28 29 30 31 32 33 34 35 36 37 38 39 40 41 42 43 44 45 46 47 48 49 50
000
ASUS42 KMHX 300222
RWRMHX
WEATHER ROUNDUP FOR EASTERN NORTH CAROLINA
NATIONAL WEATHER SERVICE NEWPORT/MOREHEAD CITY NC
900 PM EST THU JAN 29 2015

NOTE: "FAIR" INDICATES FEW OR NO CLOUDS BELOW 12,000 FEET
WITH NO SIGNIFICANT WEATHER AND/OR OBSTRUCTIONS TO VISIBILITY

NCZ015>017-031-032-045>047-102-103-300300-
NORTH COAST

CITY           SKY/WX    TMP DP  RH WIND       PRES   REMARKS
EDENTON        MOCLDY    40  31  69 S9        30.11F
ELIZABETH CITY CLOUDY    40  24  53 S9        30.12F
KITTY HAWK     MOCLDY    40  28  62 S6        30.12S
MANTEO         CLOUDY    41  28  60 S14       30.14S

$$

NCZ045>047-081-094-103-104-300300-
CENTRAL COAST

CITY           SKY/WX    TMP DP  RH WIND       PRES   REMARKS
FRISCO         CLOUDY    45  34  65 SW7       30.16F
SWANQUARTER    NOT AVBL

$$

NCZ095-097-098-100-101-300300-
SOUTHERN COAST

CITY           SKY/WX    TMP DP  RH WIND       PRES   REMARKS
BEAUFORT       CLOUDY    49  38  65 SW10      30.15F
CEDAR ISLAND   NOT AVBL
JACKSONVILLE   CLOUDY    45  35  68 S5        30.14F
PINEY ISLAND     N/A    N/A N/A N/A MISG      30.16R
WILMINGTON     CLOUDY    46  35  65 S6        30.14F


$$

NCZ011>013-027>030-043-044-078>080-089-090>093-098-300300-
COASTAL PLAIN

CITY           SKY/WX    TMP DP  RH WIND       PRES   REMARKS
AHOSKIE        CLEAR     38  20  48 CALM      30.11S
CLINTON        CLOUDY    46  31  57 S8        30.11F
ELIZABETHTOWN  MOCLDY    47  34  60 S6        30.12F
GOLDSBORO      CLOUDY    44  34  67 S2        30.09F
GREENVILLE     PTCLDY    43  25  49 SW8       30.13S
HAVELOCK       CLOUDY    41  35  79 CALM      30.16F
KENANSVILLE    CLOUDY    44  30  57 S5        30.12F
KINSTON        MOCLDY    45  28  53 S10       30.11F
NEW BERN       LGT RAIN  45  30  55 S8        30.15F
RICHLANDS      CLOUDY    45  34  65 S9        30.13F
ROCKY MOUNT    PTCLDY    38  23  55 S3        30.11R
WASHINGTON     MOCLDY    42  24  48 S6        30.12F
WHITEVILLE     MOCLDY    46  35  65 S7        30.14S

$$

AMZ130-135-150-152-154-156-158-170-250-252-270-ANZ085-086-088-633-658-670-300300-
MARINE OBSERVATIONS

STATION/POSITION TIME  TEMP    WIND        PRES    WAVE   SWELL
                       AIR SEA DIR/SP/G            HT/PER HT/PER
                 (UTC) (F)     (DEG/KT/KT) (MB)    (FT/S) (FT/S)
CHESAPEAKE LIGHT 0200   41     190/ 18/ 20 1019.3
64 E VA BEACH    0200   44 49  210/ 14/ 17 1019.8    3/12   2/12
DUCK             0200   40 43  180/ 12/ 16 1018.9
2 E DUCK         0200      42                N/A     3/11   2/11
10 NE DUCK       0200      45                N/A     3/11   2/11
OREGON INLET     0200   40 42  170/ 10/ 14 1020.5
13E OREGON INLT  0200      43                N/A     4/11   2/11
HATTERAS CG      0200   47 44  240/  8/ 11 1021.3
DIAMOND BUOY     0200   53 71  220/ 16/ 19 1020.7    4/ 8   3/ 8
17 S OCRACOKE    NOT AVBL
CAPE LOOKOUT     0200   51     210/  7/  9 1021.2
BEAUFORT LAB     0200   51 46  210/ 10/ 13 1020.0
27 SE WRIGHTSVLE NOT AVBL
5 SE WRIGHTSVLE  0200   53 52  210/ 10/ 12 1021.0
225 S CAPE HAT   0130   58 72  250/  4/ 10 1024.4    6/10   5/10
41 SE CHARLESTON 0200   62 68  210/ 16/ 17 1021.9    3/ 9   2/ 9

$$


USA.gov is the U.S. government's official web portal to all federal, state and local government web resources and services.